Wind_Speed
21 20 20 19 18 18 18 17 17 17 17 17 18 18 17 16 17 17 16 15 15 15 15 16 16 16 16 16 16 16 15 15 16 17 17 18 18 18 18 17 17 17
21 20 20 19 19 18 19 18 18 18 18 18 18 19 19 18 18 18 17 16 16 16 16 16 16 16 17 17 17 17 16 16 16 16 17 18 18 18 18 17 17 17
21 20 20 19 18 18 19 19 19 20 20 19 19 19 19 19 19 18 18 18 18 18 17 17 16 17 17 18 18 17 17 16 16 16 17 17 17 17 17 17 17 16
21 20 20 19 19 19 20 21 21 21 22 21 20 20 20 20 19 19 18 19 19 19 18 17 17 17 17 18 18 18 17 17 17 17 16 16 16 16 16 16 16 15
22 22 21 21 20 20 21 23 23 23 23 23 22 21 21 21 20 20 20 20 20 19 18 17 17 16 17 18 19 19 18 18 18 18 17 16 16 16 16 15 15 15
24 23 23 22 22 22 23 24 24 24 24 23 22 22 22 22 22 21 21 20 20 19 18 17 17 16 17 18 19 20 19 19 19 19 18 17 17 17 16 15 15 15
23 24 23 23 23 23 24 24 24 24 23 23 23 23 23 23 22 22 21 21 20 19 19 18 17 17 18 19 19 20 20 20 20 20 19 18 18 18 17 17 17 16
22 23 23 23 24 24 24 24 24 23 23 23 22 22 23 23 23 22 21 21 21 20 20 19 19 18 19 20 20 21 21 21 21 21 20 19 19 19 18 18 18 17
21 23 24 25 25 25 25 24 24 24 24 23 23 23 23 23 22 22 22 21 21 21 20 20 20 20 20 21 21 21 21 22 22 22 22 21 21 20 19 19 19 18
24 26 27 27 26 26 25 25 25 25 25 24 24 23 23 23 23 23 23 22 22 22 22 21 21 22 22 22 22 23 22 22 22 23 22 21 22 21 20 19 19 18
25 27 25 25 26 26 27 28 28 28 28 28 27 27 26 26 27 26 24 24 23 23 22 22 22 23 23 23 24 25 24 22 22 21 21 22 22 21 19 18 18 18
23 24 24 24 26 29 30 32 31 31 31 31 30 28 28 28 28 27 26 25 24 23 23 23 24 24 24 25 26 25 24 22 21 21 21 22 21 20 18 18 17 18
21 23 24 25 28 31 31 31 31 31 31 30 28 26 26 27 27 27 27 26 25 24 24 24 24 24 24 25 25 24 22 21 21 21 21 22 21 20 18 17 17 17
19 21 22 24 27 29 29 31 34 33 30 29 29 28 26 26 26 26 26 27 26 24 23 24 24 24 24 24 24 22 21 21 21 21 21 22 21 19 17 16 16 17
18 19 19 20 23 24 25 30 33 32 31 32 32 30 28 27 26 25 26 26 25 24 23 24 24 24 24 23 22 20 20 20 21 21 21 20 19 18 16 15 16 16
17 17 16 17 18 18 20 24 25 25 30 32 31 29 29 27 26 26 26 26 24 23 23 23 23 23 23 21 20 19 19 20 19 19 19 18 18 17 15 15 16 15
17 16 14 13 13 14 15 16 15 16 22 26 26 26 27 26 25 25 25 24 23 23 23 23 23 22 21 20 19 19 19 19 19 18 17 18 18 16 15 15 16 15
14 15 13 11 11 12 12 12 11 11 16 20 22 23 23 22 22 23 23 23 22 22 23 22 21 20 19 19 19 19 18 18 18 18 17 17 17 15 14 15 16 15
12 13 12 12 13 12 9 9 8 9 11 14 17 18 19 19 20 21 21 20 20 20 20 18 17 18 18 18 18 18 17 16 16 16 15 15 15 14 14 15 15 14
11 12 13 14 14 12 9 8 7 7 8 10 12 15 17 18 19 18 16 16 16 15 14 13 14 16 17 17 17 17 17 15 14 14 15 15 15 15 14 15 15 15
11 11 12 14 14 11 8 7 7 6 7 9 12 13 14 14 14 13 11 10 10 9 9 10 11 13 15 16 16 16 16 14 14 14 15 15 15 15 15 15 15 16
10 10 11 13 13 9 6 6 7 7 7 9 10 10 10 9 9 8 7 6 7 7 8 8 9 11 13 15 16 16 15 14 14 15 16 16 15 14 14 14 15 15
11 10 10 12 12 10 9 9 8 7 7 8 8 7 7 8 7 6 6 7 9 9 10 10 11 13 15 16 17 16 16 15 15 16 16 15 14 13 13 13 14 14
11 11 10 11 11 11 11 9 8 8 8 7 6 7 7 7 8 9 10 10 11 11 13 14 15 15 16 16 16 16 16 16 15 15 15 14 14 13 13 14 14 14
12 11 11 10 11 11 10 9 9 9 8 7 7 8 9 9 10 12 13 13 13 13 14 15 15 15 15 15 15 15 15 14 13 13 13 14 14 14 14 14 14 14
14 13 12 10 10 9 8 8 9 10 9 10 11 11 12 12 13 14 15 15 14 14 13 13 13 12 13 13 13 13 12 12 12 13 13 14 14 15 15 15 15 15
Wind_Direction
219 219 222 227 230 232 234 234 234 233 229 227 227 227 226 225 226 230 234 237 243 247 249 251 251 252 253 256 259 260 260 260 260 262 264 266 267 269 272 276 279 281
221 223 225 226 227 230 232 232 233 234 233 231 229 228 227 227 228 231 234 237 242 246 249 251 252 253 253 255 257 258 259 259 260 261 262 263 265 266 269 272 274 276
222 224 226 227 226 228 231 232 232 234 235 233 230 228 228 228 230 232 234 237 241 245 248 250 251 252 253 253 255 256 259 260 261 261 262 264 266 266 267 268 270 273
222 224 225 226 225 224 225 228 230 232 234 235 232 230 230 231 233 234 235 238 242 245 247 248 249 249 250 251 252 254 257 261 263 264 265 267 267 268 268 268 270 271
221 223 225 225 224 223 224 225 228 229 232 235 235 234 233 233 234 234 235 237 240 243 244 246 248 249 249 249 250 251 254 258 262 264 266 267 267 268 269 269 270 271
223 223 224 226 225 224 225 226 228 229 232 235 237 238 237 236 236 235 236 238 240 242 244 247 249 251 251 251 250 251 252 255 259 262 265 266 267 269 269 270 271 273
223 228 228 228 228 228 227 227 229 230 232 233 235 237 238 239 239 239 239 241 244 245 248 250 253 255 257 257 256 255 255 256 258 260 263 264 266 268 268 270 273 275
217 228 232 231 230 229 229 230 231 232 233 233 234 236 238 239 240 241 243 245 248 250 251 254 256 259 262 263 263 262 260 258 258 258 260 261 263 266 267 270 273 275
220 224 230 233 233 232 232 233 234 235 235 234 234 235 237 238 240 242 245 247 250 253 255 257 258 261 264 265 265 264 261 258 255 255 255 257 260 262 264 267 271 274
230 227 227 229 232 235 237 237 238 238 238 237 236 237 237 238 239 241 245 248 250 253 256 257 259 261 263 264 264 263 260 256 254 253 252 254 256 259 261 265 270 273
240 242 241 236 234 236 238 237 237 237 237 236 235 236 237 239 240 240 243 247 250 252 255 256 258 260 262 262 262 260 257 255 254 254 253 253 255 257 260 265 269 271
246 253 256 252 244 241 239 237 235 234 235 235 235 236 240 244 247 248 247 247 249 252 255 256 257 258 260 261 260 258 257 256 255 255 255 254 255 258 260 264 268 269
245 251 256 256 252 249 249 249 247 243 241 242 243 242 245 248 252 254 253 253 252 253 255 257 259 259 259 260 260 259 259 258 257 257 255 253 253 255 259 263 266 267
247 251 255 259 261 262 263 261 258 252 247 247 247 245 245 247 247 249 252 255 256 256 258 260 261 261 261 260 259 260 259 259 259 258 253 250 249 250 253 259 264 266
250 253 258 263 267 270 270 266 262 256 247 243 243 243 244 245 246 248 250 252 255 257 259 260 259 260 260 259 260 261 261 260 260 257 252 249 249 251 253 257 261 264
253 257 261 264 267 271 275 275 269 256 241 236 239 242 244 245 248 252 252 251 252 254 256 257 256 257 258 260 261 259 258 257 256 252 249 247 249 252 255 256 257 259
249 253 254 259 265 267 271 275 271 249 232 231 238 243 245 247 251 253 252 251 252 253 254 254 254 254 256 258 259 258 255 252 248 244 243 245 248 251 253 255 256 258
241 246 248 250 257 259 257 258 252 232 223 228 235 240 244 247 249 247 246 248 251 253 253 252 251 250 251 253 256 257 253 247 241 238 238 243 249 251 253 257 260 261
241 243 244 241 241 241 240 239 231 222 223 229 234 238 243 245 244 242 243 247 250 251 250 246 243 242 243 246 248 248 246 241 236 234 235 241 249 252 254 258 260 261
248 248 244 238 235 228 218 216 213 210 221 230 232 236 239 239 237 236 237 239 241 242 239 235 234 236 238 241 239 236 237 236 231 230 233 239 246 250 252 255 258 260
254 254 247 242 242 234 220 216 213 201 203 211 215 218 222 223 222 218 218 223 227 231 232 229 231 233 233 233 230 228 230 229 227 231 237 240 244 249 252 255 259 262
261 259 257 259 264 265 256 241 228 214 207 201 200 199 198 200 201 196 200 212 215 218 222 223 225 225 222 222 223 225 226 228 232 238 242 244 246 249 252 255 260 264
264 260 260 267 274 277 269 252 233 223 216 203 199 200 193 190 191 190 201 211 207 203 205 208 211 212 213 217 222 226 228 231 237 242 246 249 250 251 252 255 258 259
263 263 262 264 267 270 268 256 237 224 213 207 212 214 203 195 193 194 204 212 211 206 206 207 208 211 215 220 225 229 232 236 240 245 250 255 258 259 260 260 259 257
258 259 260 260 261 264 268 262 246 228 209 206 218 220 215 212 208 208 213 218 219 218 216 214 216 220 225 231 234 237 241 246 251 257 262 265 267 268 267 265 264 262
259 257 255 254 255 259 263 261 253 240 222 216 220 219 215 213 212 214 219 221 222 222 221 221 224 228 234 241 246 250 255 260 264 267 267 267 267 267 267 267 267 267
Height
3184 3185 3187 3188 3189 3190 3191 3192 3193 3194 3195 3196 3198 3199 3200 3200 3201 3201 3202 3203 3204 3204 3205 3205 3205 3206 3206 3206 3207 3207 3208 3208 3209 3209 3209 3209 3209 3209 3210 3210 3210 3210
3183 3184 3185 3187 3188 3189 3190 3191 3192 3193 3194 3195 3196 3197 3198 3199 3199 3200 3201 3201 3202 3203 3203 3203 3204 3204 3204 3205 3205 3205 3206 3206 3207 3207 3207 3207 3207 3207 3208 3208 3208 3208
3182 3183 3184 3185 3187 3188 3189 3190 3190 3191 3192 3194 3195 3196 3197 3198 3198 3199 3200 3200 3201 3201 3201 3202 3202 3202 3203 3203 3203 3203 3204 3204 3205 3205 3205 3205 3205 3206 3206 3206 3206 3206
3180 3181 3182 3184 3185 3187 3188 3188 3189 3190 3191 3192 3193 3194 3195 3196 3197 3197 3198 3198 3199 3199 3200 3200 3200 3201 3201 3201 3201 3202 3202 3203 3203 3203 3203 3203 3204 3204 3204 3204 3204 3204
3178 3179 3181 3182 3183 3185 3185 3186 3187 3188 3189 3191 3192 3193 3193 3194 3195 3196 3196 3197 3197 3197 3198 3198 3199 3199 3199 3199 3200 3200 3201 3201 3201 3201 3202 3202 3202 3202 3202 3202 3202 3203
3175 3176 3178 3179 3181 3182 3183 3184 3185 3186 3188 3189 3190 3191 3191 3192 3193 3193 3194 3195 3195 3195 3196 3196 3197 3197 3198 3198 3198 3198 3199 3199 3199 3200 3200 3200 3200 3200 3201 3201 3201 3201
3173 3174 3175 3177 3178 3179 3180 3181 3183 3184 3185 3186 3187 3188 3188 3189 3190 3191 3192 3192 3193 3193 3194 3194 3195 3195 3196 3196 3196 3196 3197 3197 3197 3198 3198 3198 3199 3199 3199 3199 3199 3199
3169 3172 3173 3174 3175 3176 3178 3179 3180 3181 3182 3183 3184 3185 3185 3186 3187 3188 3189 3190 3191 3191 3192 3192 3193 3193 3193 3194 3194 3194 3195 3195 3195 3195 3196 3196 3197 3197 3197 3197 3197 3198
3166 3168 3170 3171 3173 3174 3175 3176 3177 3178 3179 3180 3181 3181 3182 3182 3183 3184 3185 3186 3187 3188 3189 3190 3190 3191 3191 3191 3192 3192 3192 3193 3193 3193 3193 3194 3194 3195 3195 3195 3196 3196
3164 3164 3165 3167 3169 3171 3173 3174 3175 3176 3177 3177 3178 3179 3179 3180 3180 3181 3182 3183 3184 3185 3186 3187 3188 3188 3188 3188 3189 3189 3190 3190 3190 3190 3191 3191 3192 3192 3193 3193 3194 3194
3162 3163 3164 3165 3167 3168 3169 3170 3171 3172 3173 3173 3174 3175 3176 3176 3177 3178 3179 3180 3181 3182 3183 3184 3185 3185 3185 3185 3185 3186 3186 3187 3187 3188 3188 3189 3189 3190 3191 3191 3192 3192
3160 3163 3164 3164 3165 3164 3163 3164 3166 3168 3168 3169 3170 3171 3173 3175 3176 3177 3178 3178 3178 3179 3180 3181 3181 3182 3182 3182 3182 3183 3184 3184 3185 3185 3186 3187 3187 3188 3189 3189 3190 3190
3158 3160 3160 3161 3161 3160 3161 3162 3164 3166 3168 3169 3170 3171 3172 3173 3174 3176 3177 3176 3176 3176 3177 3178 3178 3179 3179 3179 3179 3181 3182 3183 3183 3183 3184 3185 3186 3186 3187 3188 3188 3188
3155 3156 3156 3157 3158 3159 3160 3160 3160 3164 3168 3169 3168 3168 3168 3169 3170 3171 3173 3173 3173 3174 3174 3175 3176 3176 3176 3177 3178 3179 3180 3181 3181 3181 3182 3183 3184 3184 3185 3185 3186 3186
3151 3152 3153 3154 3154 3155 3155 3152 3153 3159 3163 3163 3163 3164 3164 3165 3166 3167 3168 3169 3170 3171 3172 3172 3173 3174 3174 3175 3176 3177 3177 3178 3178 3179 3180 3181 3182 3182 3182 3183 3183 3183
3147 3148 3150 3150 3150 3151 3150 3148 3149 3152 3154 3156 3158 3160 3161 3162 3163 3164 3165 3166 3167 3168 3169 3170 3171 3172 3172 3172 3173 3174 3175 3175 3176 3177 3178 3179 3180 3180 3180 3181 3181 3181
3145 3146 3147 3147 3147 3148 3147 3146 3146 3147 3149 3152 3155 3157 3158 3159 3160 3161 3162 3163 3163 3165 3166 3167 3168 3169 3169 3170 3170 3171 3172 3173 3174 3175 3176 3177 3178 3178 3178 3179 3179 3179
3143 3144 3144 3144 3144 3145 3145 3145 3145 3145 3147 3150 3152 3154 3155 3156 3157 3158 3159 3159 3160 3162 3163 3164 3165 3166 3166 3167 3167 3168 3170 3171 3172 3172 3173 3175 3176 3176 3176 3177 3177 3178
3142 3142 3142 3142 3141 3142 3143 3143 3144 3145 3146 3147 3149 3150 3151 3152 3154 3155 3155 3156 3157 3159 3160 3161 3162 3162 3163 3164 3165 3166 3168 3169 3169 3170 3171 3173 3173 3174 3174 3175 3175 3175
3141 3142 3141 3140 3140 3141 3142 3142 3143 3144 3145 3145 3147 3148 3149 3150 3151 3151 3152 3153 3154 3155 3157 3158 3159 3160 3160 3162 3163 3165 3166 3167 3167 3168 3169 3171 3171 3171 3172 3172 3173 3173
3140 3140 3140 3140 3142 3143 3142 3141 3140 3141 3143 3144 3145 3146 3147 3148 3149 3149 3149 3150 3151 3152 3154 3155 3156 3157 3159 3160 3162 3163 3164 3165 3165 3166 3167 3168 3169 3169 3169 3170 3170 3171
3138 3139 3139 3140 3141 3141 3140 3138 3138 3140 3141 3142 3142 3143 3144 3145 3146 3147 3146 3147 3148 3150 3151 3153 3155 3156 3157 3159 3161 3162 3162 3162 3163 3164 3165 3166 3166 3167 3167 3167 3168 3168
3137 3137 3138 3138 3138 3138 3137 3137 3138 3138 3139 3139 3139 3140 3140 3141 3142 3143 3144 3145 3146 3147 3149 3151 3153 3154 3156 3157 3159 3159 3160 3160 3161 3162 3163 3163 3164 3164 3164 3165 3165 3166
3135 3136 3137 3137 3137 3137 3137 3137 3137 3137 3137 3138 3138 3139 3138 3139 3140 3141 3142 3144 3145 3146 3147 3149 3151 3153 3154 3155 3156 3157 3158 3159 3159 3160 3161 3161 3161 3162 3162 3162 3163 3163
3134 3135 3136 3136 3137 3136 3137 3137 3137 3137 3137 3137 3137 3138 3138 3138 3140 3141 3142 3143 3145 3146 3147 3149 3150 3151 3152 3153 3154 3155 3156 3157 3158 3159 3159 3159 3159 3160 3160 3160 3160 3161
3134 3134 3134 3135 3136 3136 3136 3136 3137 3137 3138 3138 3137 3138 3138 3138 3140 3141 3142 3143 3145 3146 3147 3148 3149 3150 3151 3152 3153 3153 3154 3155 3156 3157 3157 3157 3158 3158 3158 3158 3159 3159